Dover AFB, DE

6:06 AM EST on January 18, 2018 (GMT -0500)
Dover Air Force Base

Weather History for KDOV - July, 2013

Change the Weather History Date:

Tuesday, July 2, 2013

  Actual Average Record
Temperature  
Mean Temperature 78 °F -  
Max Temperature 85 °F 85 °F 99 °F (1953)
Min Temperature 72 °F 64 °F 51 °F (1952)
Cooling Degree Days 13    
Growing Degree Days 28 (Base 50)    
Moisture  
Dew Point 74 °F    
Average Humidity 94    
Maximum Humidity 100    
Minimum Humidity 69    
Precipitation  
Precipitation 0.26 in - - ()
Sea Level Pressure  
Sea Level Pressure 30.10 in    
Wind  
Wind Speed 11 mph (South)    
Max Wind Speed 17 mph    
Max Gust Speed 18 mph    
Visibility 9 miles    
Events Rain    
Averages and records for this station are not official NWS values.
T = Trace of Precipitation, MM = Missing Value Source: NWS Daily Summary

Daily Weather History Graph

Daily Weather History Graph

Search for Another Location

Airport or City:

Trip Planner

Search our weather history database for the weather conditions in past years. The results will help you decide how hot, cold, wet, or windy it might be!

Date:

Astronomy

Jul. 02, 2013 Rise Set
Actual Time 5:40 AM EDT 8:31 PM EDT
Civil Twilight 5:08 AM EDT 9:03 PM EDT
Nautical Twilight 4:27 AM EDT 9:43 PM EDT
Astronomical Twilight 3:41 AM EDT 10:30 PM EDT
Moon 1:40 AM EDT (7/2) 3:44 PM EDT (7/2)
Length of Visible Light 15h 55m
Length of Day
14h 51m
Waning Crescent, 26% of the Moon is Illuminated
Jul 2
Waning Crescent
Jul 8
New
Jul 15
First Quarter
Jul 22
Full
Jul 29
Last Quarter

Hourly Weather History & Observations

Time (EDT) Temp. Heat Index Dew Point Humidity Pressure Visibility Wind Dir Wind Speed Gust Speed Precip Events Conditions
12:13 AM 75.2 °F - 73.4 °F 94% 30.02 in 9.0 mi South 11.5 mph - N/A   Mostly Cloudy
12:23 AM 75.2 °F - 73.4 °F 94% 30.02 in 10.0 mi South 12.7 mph - N/A   Mostly Cloudy
12:38 AM 75.2 °F - 73.4 °F 94% 30.03 in 10.0 mi South 13.8 mph - N/A   Overcast
12:43 AM 75.2 °F - 73.4 °F 94% 30.03 in 8.0 mi South 10.4 mph - N/A   Overcast
12:48 AM 75.2 °F - 73.4 °F 94% 30.03 in 9.0 mi South 12.7 mph - N/A   Overcast
12:53 AM 75.2 °F - 73.4 °F 94% 30.03 in 10.0 mi South 13.8 mph - N/A   Overcast
12:58 AM 74.3 °F - 73.9 °F 99% 30.04 in 10.0 mi South 13.8 mph - N/A   Overcast
1:03 AM 73.4 °F - 73.4 °F 100% 30.03 in 10.0 mi South 13.8 mph - N/A   Overcast
1:48 AM 75.2 °F - 73.4 °F 94% 30.04 in 9.0 mi South 15.0 mph - N/A   Overcast
1:58 AM 74.3 °F - 74.1 °F 99% 30.04 in 9.0 mi South 10.4 mph - N/A   Mostly Cloudy
2:03 AM 75.2 °F - 73.4 °F 94% 30.04 in 10.0 mi South 11.5 mph - N/A   Mostly Cloudy
2:28 AM 73.4 °F - 73.4 °F 100% 30.04 in 10.0 mi SSE 10.4 mph - N/A   Overcast
2:33 AM 73.4 °F - 73.4 °F 100% 30.04 in 10.0 mi SSE 10.4 mph - N/A   Overcast
2:38 AM 73.4 °F - 73.4 °F 100% 30.04 in 10.0 mi SSE 10.4 mph - N/A   Overcast
2:43 AM 73.4 °F - 73.4 °F 100% 30.04 in 10.0 mi SSE 10.4 mph - N/A   Overcast
2:48 AM 73.4 °F - 73.4 °F 100% 30.04 in 10.0 mi SSE 9.2 mph - N/A   Mostly Cloudy
2:58 AM 73.9 °F - 73.6 °F 99% 30.05 in 10.0 mi SSE 8.1 mph - N/A   Mostly Cloudy
3:03 AM 73.4 °F - 73.4 °F 100% 30.04 in 10.0 mi SSE 8.1 mph - N/A   Mostly Cloudy
3:28 AM 73.4 °F - 73.4 °F 100% 30.04 in 10.0 mi SSE 8.1 mph - N/A   Mostly Cloudy
3:33 AM 73.4 °F - 73.4 °F 100% 30.04 in 10.0 mi South 8.1 mph - N/A   Mostly Cloudy
3:58 AM 73.4 °F - 73.2 °F 99% 30.05 in 10.0 mi SSE 9.2 mph - N/A   Mostly Cloudy
4:58 AM 73.8 °F - 73.4 °F 99% 30.06 in 10.0 mi South 9.2 mph - N/A   Overcast
5:58 AM 73.6 °F - 73.2 °F 99% 30.07 in 10.0 mi SSE 10.4 mph - N/A   Overcast
6:53 AM 73.4 °F - 73.4 °F 100% 30.07 in 10.0 mi SSE 8.1 mph - N/A   Mostly Cloudy
6:58 AM 73.9 °F - 73.8 °F 99% 30.09 in 10.0 mi South 9.2 mph - N/A   Overcast
7:18 AM 75.2 °F - 73.4 °F 94% 30.09 in 10.0 mi SSE 10.4 mph - N/A   Mostly Cloudy
7:58 AM 75.4 °F - 75.2 °F 99% 30.10 in 10.0 mi SSE 10.4 mph - N/A   Scattered Clouds
8:12 AM 75.2 °F - 75.2 °F 100% 30.09 in 10.0 mi SSE 10.4 mph - N/A Rain Light Rain
8:32 AM 75.2 °F - 75.2 °F 100% 30.10 in 9.0 mi SSE 9.2 mph - N/A Rain Light Rain
8:37 AM 75.2 °F - 75.2 °F 100% 30.10 in 9.0 mi South 10.4 mph - N/A Rain Light Rain
8:52 AM 75.2 °F - 75.2 °F 100% 30.10 in 10.0 mi South 10.4 mph - N/A Rain Light Rain
8:58 AM 75.6 °F - 75.4 °F 99% 30.11 in 10.0 mi South 10.4 mph - 0.02 in Rain Light Rain
9:13 AM 75.2 °F - 75.2 °F 100% 30.11 in 10.0 mi South 11.5 mph - N/A Rain Light Rain
9:33 AM 75.2 °F - 75.2 °F 100% 30.11 in 8.0 mi South 12.7 mph - N/A Rain Light Rain
9:41 AM 75.2 °F - 75.2 °F 100% 30.12 in 10.0 mi South 12.7 mph - N/A   Scattered Clouds
9:51 AM 73.4 °F - 73.4 °F 100% 30.12 in 10.0 mi SSE 15.0 mph - N/A   Light Drizzle
9:58 AM 73.9 °F - 73.6 °F 99% 30.13 in 10.0 mi SSE 16.1 mph - 0.01 in   Light Drizzle
10:00 AM 73.4 °F - 73.4 °F 100% 30.12 in 10.0 mi SSE 16.1 mph - N/A   Mostly Cloudy
10:35 AM 75.2 °F - 75.2 °F 100% 30.12 in 10.0 mi SSE 9.2 mph - N/A Rain Light Rain
10:55 AM 75.2 °F - 75.2 °F 100% 30.12 in 3.0 mi SSE 6.9 mph - N/A Rain Light Rain
10:58 AM 75.0 °F - 74.7 °F 99% 30.13 in 3.0 mi SSE 8.1 mph - 0.02 in Rain Light Rain
11:08 AM 75.2 °F - 75.2 °F 100% 30.13 in 9.0 mi South 6.9 mph - N/A Rain Light Rain
11:24 AM 77.0 °F - 77.0 °F 100% 30.13 in 10.0 mi SSE 10.4 mph - N/A   Mostly Cloudy
11:49 AM 78.8 °F - 77.0 °F 94% 30.12 in 10.0 mi South 12.7 mph - N/A   Mostly Cloudy
11:58 AM 79.2 °F - 77.5 °F 95% 30.13 in 8.0 mi South 13.8 mph - 0.01 in   Mostly Cloudy
12:23 PM 80.6 °F 87.1 °F 77.0 °F 89% 30.13 in 10.0 mi South 15.0 mph - N/A   Mostly Cloudy
12:33 PM 80.6 °F 86.2 °F 75.2 °F 84% 30.12 in 10.0 mi South 15.0 mph - N/A   Mostly Cloudy
12:38 PM 80.6 °F 87.1 °F 77.0 °F 89% 30.13 in 10.0 mi South 13.8 mph - N/A   Mostly Cloudy
12:58 PM 80.6 °F 86.6 °F 75.9 °F 86% 30.13 in 10.0 mi South 13.8 mph - N/A   Mostly Cloudy
1:43 PM 80.6 °F 86.2 °F 75.2 °F 84% 30.12 in 10.0 mi SSW 12.7 mph - N/A   Mostly Cloudy
1:52 PM 80.6 °F 86.2 °F 75.2 °F 84% 30.12 in 10.0 mi South 15.0 mph - N/A   Light Drizzle
1:57 PM 80.6 °F 86.2 °F 75.2 °F 84% 30.12 in 10.0 mi SSW 10.4 mph - N/A   Light Drizzle
1:58 PM 81.3 °F 87.6 °F 75.2 °F 82% 30.13 in 10.0 mi SSW 10.4 mph - 0.00 in   Light Drizzle
2:02 PM 82.4 °F 89.5 °F 75.2 °F 79% 30.12 in 10.0 mi South 10.4 mph - N/A   Mostly Cloudy
2:12 PM 82.4 °F 89.5 °F 75.2 °F 79% 30.12 in 10.0 mi South 15.0 mph - N/A   Mostly Cloudy
2:17 PM 82.4 °F 89.5 °F 75.2 °F 79% 30.11 in 10.0 mi South 13.8 mph - N/A   Overcast
2:58 PM 83.7 °F 91.0 °F 74.7 °F 74% 30.12 in 10.0 mi South 15.0 mph - 0.00 in   Mostly Cloudy
3:58 PM 84.0 °F 91.2 °F 74.1 °F 72% 30.12 in 10.0 mi South 11.5 mph - N/A   Mostly Cloudy
4:58 PM 84.6 °F 91.4 °F 73.6 °F 69% 30.13 in 10.0 mi South 17.3 mph - N/A   Partly Cloudy
5:58 PM 81.9 °F 87.0 °F 73.0 °F 74% 30.15 in 10.0 mi SSW 16.1 mph - N/A   Clear
6:22 PM 80.6 °F 85.4 °F 73.4 °F 79% 30.15 in 10.0 mi SW 11.5 mph - N/A Rain Light Rain
6:52 PM 75.2 °F - 75.2 °F 100% 30.17 in 5.0 mi WSW 9.2 mph 18.4 mph N/A Rain Light Rain
6:57 PM 75.2 °F - 75.2 °F 100% 30.17 in 6.0 mi WSW 9.2 mph 18.4 mph N/A Rain Light Rain
6:58 PM 75.6 °F - 74.3 °F 96% 30.18 in 6.0 mi WSW 9.2 mph 18.4 mph 0.09 in Rain Light Rain
7:03 PM 75.2 °F - 75.2 °F 100% 30.17 in 8.0 mi WSW 6.9 mph - N/A Rain Rain
7:58 PM 74.1 °F - 73.8 °F 99% 30.18 in 10.0 mi SSE 10.4 mph - 0.10 in Rain Light Rain
8:18 PM 73.4 °F - 73.4 °F 100% 30.17 in 10.0 mi SSE 9.2 mph - N/A   Partly Cloudy
8:58 PM 73.0 °F - 72.9 °F 99% 30.18 in 10.0 mi South 10.4 mph - 0.01 in   Clear
9:58 PM 72.9 °F - 72.5 °F 99% 30.19 in 10.0 mi South 12.7 mph - N/A   Clear
10:58 PM 72.5 °F - 72.1 °F 99% 30.20 in 10.0 mi South 9.2 mph - N/A   Clear
11:58 PM 72.5 °F - 72.3 °F 99% 30.20 in 10.0 mi South 9.2 mph - N/A   Clear